Laramie, WY

8:11 AM MST on February 26, 2017 (GMT -0700)
Laramie Regional

Weather History for KLAR - July, 2012

Change the Weather History Date:

Monday, July 16, 2012

  Actual Average Record
Temperature  
Mean Temperature 67 °F 64 °F  
Max Temperature 81 °F 81 °F 92 °F (1966)
Min Temperature 52 °F 48 °F 41 °F (1973)
Degree Days  
Heating Degree Days 0 2  
Month to date heating degree days 11 42  
Since 1 June heating degree days 93 283  
Since 1 July heating degree days 11 42  
Cooling Degree Days 2 1  
Month to date cooling degree days 53 16  
Year to date cooling degree days 115 23  
Since 1 June cooling degree days 115 23  
Growing Degree Days 16 (Base 50)    
Moisture  
Dew Point 49 °F    
Average Humidity 57    
Maximum Humidity 86    
Minimum Humidity 28    
Precipitation  
Precipitation 0.04 in 0.05 in 0.37 in (2000)
Month to date precipitation 0.87 0.68  
Year to date precipitation 3.47 6.17  
Sea Level Pressure  
Sea Level Pressure 29.92 in    
Wind  
Wind Speed 7 mph (SSW)    
Max Wind Speed 20 mph    
Max Gust Speed 40 mph    
Visibility 10 miles    
Events Rain , Thunderstorm    
T = Trace of Precipitation, MM = Missing Value Source: NWS Daily Summary

Daily Weather History Graph

Daily Weather History Graph

Search for Another Location

Airport or City:

Trip Planner

Search our weather history database for the weather conditions in past years. The results will help you decide how hot, cold, wet, or windy it might be!

Date:

Astronomy

Jul. 16, 2012 Rise Set
Actual Time 5:43 AM MDT 8:33 PM MDT
Civil Twilight 5:11 AM MDT 9:05 PM MDT
Nautical Twilight 4:29 AM MDT 9:46 PM MDT
Astronomical Twilight 3:42 AM MDT 10:34 PM MDT
Moon 3:30 AM MDT (7/16) 6:40 PM MDT (7/16)
Length of Visible Light 15h 54m
Length of Day
14h 49m
Waning Crescent, 6% of the Moon is Illuminated
Jul 16
Waning Crescent
Jul 18
New
Jul 26
First Quarter
Aug 1
Full
Aug 9
Last Quarter

Hourly Weather History & Observations

Time (MDT) Temp. Dew Point Humidity Pressure Visibility Wind Dir Wind Speed Gust Speed Precip Events Conditions
12:53 AM 55.4 °F 50.0 °F 82% 30.21 in 10.0 mi South 9.2 mph - N/A   Clear
1:53 AM 57.9 °F 50.0 °F 75% 29.83 in 10.0 mi SSE 6.9 mph - N/A   Partly Cloudy
2:53 AM 55.9 °F 48.9 °F 77% 29.84 in 10.0 mi East 4.6 mph - N/A   Clear
3:53 AM 57.9 °F 48.0 °F 70% 29.82 in 10.0 mi South 3.5 mph - N/A   Clear
4:53 AM 57.0 °F 46.9 °F 69% 29.91 in 10.0 mi South 4.6 mph - N/A   Partly Cloudy
5:53 AM 53.1 °F 46.9 °F 80% 29.91 in 10.0 mi South 4.6 mph - N/A   Clear
6:53 AM 59.0 °F 48.9 °F 69% 29.93 in 10.0 mi SSW 10.4 mph - N/A   Clear
7:53 AM 64.0 °F 48.9 °F 58% 29.90 in 10.0 mi SW 10.4 mph - N/A   Clear
8:53 AM 68.0 °F 48.9 °F 50% 29.89 in 10.0 mi SW 11.5 mph - N/A   Clear
9:53 AM 71.1 °F 48.0 °F 44% 29.88 in 10.0 mi West 10.4 mph - N/A   Clear
10:53 AM 73.9 °F 46.9 °F 38% 29.86 in 10.0 mi Variable 3.5 mph - N/A   Clear
11:53 AM 75.0 °F 45.0 °F 34% 29.84 in 10.0 mi Calm Calm - N/A   Clear
12:53 PM 77.0 °F 44.1 °F 31% 29.83 in 10.0 mi West 11.5 mph - N/A   Clear
1:53 PM 79.0 °F 43.0 °F 28% 29.79 in 10.0 mi SW 9.2 mph - N/A   Scattered Clouds
2:53 PM 78.1 °F 44.1 °F 30% 29.79 in 10.0 mi North 8.1 mph - N/A Thunderstorm Mostly Cloudy
3:09 PM 75.2 °F 44.6 °F 34% 30.15 in 10.0 mi SSE 16.1 mph 20.7 mph N/A   Overcast
3:16 PM 73.4 °F 46.4 °F 38% 30.14 in 10.0 mi SE 8.1 mph 20.7 mph 0.00 in Rain , Thunderstorm Light Rain
3:53 PM 66.0 °F 52.0 °F 60% 29.84 in 10.0 mi SE 4.6 mph - 0.01 in Rain , Thunderstorm Light Thunderstorms and Rain
4:35 PM 64.4 °F 53.6 °F 68% 30.16 in 10.0 mi NNW 10.4 mph - 0.01 in Rain Light Rain
4:53 PM 63.0 °F 54.0 °F 72% 29.89 in 10.0 mi NW 10.4 mph - 0.01 in Rain Light Rain
5:39 PM 60.8 °F 55.4 °F 82% 30.20 in 10.0 mi NNW 9.2 mph - 0.01 in Rain , Thunderstorm Light Rain
5:53 PM 61.0 °F 55.9 °F 83% 29.95 in 10.0 mi North 6.9 mph - 0.02 in Rain Light Rain
6:53 PM 60.1 °F 55.0 °F 83% 29.91 in 10.0 mi WNW 10.4 mph - 0.00 in   Mostly Cloudy
7:53 PM 60.1 °F 53.1 °F 78% 29.90 in 10.0 mi Variable 5.8 mph - 0.00 in   Clear
8:53 PM 60.1 °F 51.1 °F 72% 29.88 in 10.0 mi SSW 10.4 mph - N/A   Partly Cloudy
9:53 PM 59.0 °F 51.1 °F 75% 29.90 in 10.0 mi SW 5.8 mph - N/A   Mostly Cloudy
10:53 PM 57.0 °F 52.0 °F 83% 29.86 in 10.0 mi South 6.9 mph - N/A   Clear
11:53 PM 55.0 °F 51.1 °F 86% 29.84 in 10.0 mi South 3.5 mph - N/A   Clear